This demonstration page uses our WeatherBlox Daily Observations layout. Learn more.

Left ArrowRight Arrow

44.89941, -97.11507

Hourly Observations for May 3, 2019

Temp ( °F °C ) Dew Point ( °F °C ) Humidity (%) Winds ( mph kmh ) Pressure ( in mb ) Visibility ( mi km ) Precip ( " mm )
12:53 am 00:53 Mostly Cloudy 44 6.7 37 2.8 76 76 SSE 12 19 30.06 1018 10 16 0.00 0.00
1:53 am 01:53 Mostly Clear 43 6.1 36 2.2 76 76 SSE 13 20 30.06 1018 10 16 0.00 0.00
2:53 am 02:53 Mostly Cloudy 43 6.1 36 2.2 76 76 SSE 13 20 30.03 1017 10 16 0.00 0.00
3:53 am 03:53 Partly Cloudy 43 6.1 35 1.7 74 74 SSE 13 20 30.01 1016 10 16 0.00 0.00
4:53 am 04:53 Cloudy 43 6.1 35 1.7 74 74 SSE 13 20 30.00 1016 10 16 0.00 0.00
5:53 am 05:53 Mostly Cloudy 42 5.6 36 2.2 79 79 S 14 22 30.00 1016 10 16 0.00 0.00
6:53 am 06:53 Cloudy with Light Rain 42 5.6 38 3.3 85 85 SSE 8 13 30.00 1016 10 16 0.01 0.25
7:53 am 07:53 Cloudy 43 6.1 37 2.8 80 80 SE 13 20 29.97 1015 10 16 0.02 0.51
8:53 am 08:53 Mostly Cloudy 46 7.8 39 3.9 77 77 SSE 17 28 29.95 1014 10 16 0.00 0.00
9:53 am 09:53 Mostly Sunny 51 10.6 42 5.6 71 71 S 20 31 29.93 1014 10 16 0.00 0.00
10:53 am 10:53 Mostly Sunny 57 13.9 44 6.7 62 62 SSW 23 37 29.93 1013 10 16 0.00 0.00
11:53 am 11:53 Cloudy 56 13.3 42 5.6 60 60 SW 17 28 29.93 1014 10 16 0.00 0.00
12:53 pm 12:53 Mostly Cloudy 57 13.9 43 6.1 60 60 WSW 17 28 29.93 1014 10 16 0.00 0.00
1:53 pm 13:53 Cloudy 56 13.3 42 5.6 60 60 W 16 26 29.95 1014 10 16 0.00 0.00
2:53 pm 14:53 Cloudy with Light Rain 52 11.1 46 7.8 80 80 SSE 6 9 29.94 1014 6 10 0.01 0.25
3:53 pm 15:53 Mostly Sunny 59 15 45 7.2 60 60 W 14 22 29.92 1013 10 16 0.00 0.03
4:53 pm 16:53 Mostly Sunny 61 16.1 42 5.6 50 50 W 14 22 29.91 1013 10 16 0.00 0.00
5:53 pm 17:53 Mostly Sunny 60 15.6 41 5 50 50 WNW 12 19 29.91 1013 10 16 0.00 0.00
6:53 pm 18:53 Mostly Sunny 61 16.1 38 3.3 43 43 NW 9 15 29.92 1013 10 16 0.00 0.00
7:53 pm 19:53 Sunny 58 14.4 37 2.8 46 46 WNW 6 9 29.92 1013 10 16 0.00 0.00
8:53 pm 20:53 Clear 52 11.1 37 2.8 57 57 W 6 9 29.94 1014 10 16 0.00 0.00
9:53 pm 21:53 Clear 49 9.4 37 2.8 64 64 Calm 29.96 1014 10 16 0.00 0.00
10:53 pm 22:53 Clear 44 6.7 37 2.8 76 76 S 6 9 29.96 1015 10 16 0.00 0.00
11:53 pm 23:53 Clear 44 6.7 39 3.9 83 83 SSE 3 6 29.96 1015 10 16 0.00 0.00

Powered by AerisWeather